Time,TemperatureF,DewpointF,PressureIn,WindDirection,WindDirectionDegrees,WindSpeedMPH,WindSpeedGustMPH,Humidity,HourlyPrecipIn,Conditions,Clouds,dailyrainin,SoftwareType,DateUTC
2013-02-19 00:00:00,19.5,3.0,30.29,NNE,20,1.0,1.0,48,0.00,,,0.00,Wunderground v.1.15,2013-02-19 07:00:00,
2013-02-19 00:30:00,18.4,1.0,30.30,NNE,23,0.0,2.0,46,0.00,,,0.00,Wunderground v.1.15,2013-02-19 07:30:00,
2013-02-19 01:00:00,18.1,1.2,30.30,NNE,23,0.0,1.0,47,0.00,,,0.00,Wunderground v.1.15,2013-02-19 08:00:00,
2013-02-19 01:30:00,23.9,-0.4,30.28,NNE,14,3.0,3.0,34,0.00,,,0.00,Wunderground v.1.15,2013-02-19 08:30:00,
2013-02-19 02:00:00,25.0,-2.1,30.20,North,7,3.0,3.0,30,0.00,,,0.00,Wunderground v.1.15,2013-02-19 09:00:00,
2013-02-19 02:30:00,21.1,-1.2,30.22,North,6,1.0,2.0,37,0.00,,,0.00,Wunderground v.1.15,2013-02-19 09:30:00,
2013-02-19 03:30:00,20.0,-1.6,30.21,NNE,24,1.0,1.0,38,0.00,,,0.00,Wunderground v.1.15,2013-02-19 10:30:00,
2013-02-19 04:00:00,18.1,-1.7,30.24,NNE,24,0.0,3.0,41,0.00,,,0.00,Wunderground v.1.15,2013-02-19 11:00:00,
2013-02-19 04:30:00,15.7,-2.9,30.27,NNE,31,1.0,1.0,43,0.00,,,0.00,Wunderground v.1.15,2013-02-19 11:30:00,
2013-02-19 05:00:00,24.4,-4.9,30.22,NNE,30,2.0,2.0,27,0.00,,,0.00,Wunderground v.1.15,2013-02-19 12:00:00,
2013-02-19 05:30:00,22.9,-2.0,30.22,NNE,23,2.0,2.0,33,0.00,,,0.00,Wunderground v.1.15,2013-02-19 12:30:00,
2013-02-19 06:00:00,24.4,-5.6,30.19,North,11,3.0,3.0,26,0.00,,,0.00,Wunderground v.1.15,2013-02-19 13:00:00,
2013-02-19 06:30:00,19.2,-6.5,30.25,NE,37,2.0,2.0,31,0.00,,,0.00,Wunderground v.1.15,2013-02-19 13:30:00,
2013-02-19 07:00:00,19.1,-4.7,30.27,NNE,32,1.0,1.0,34,0.00,,,0.00,Wunderground v.1.15,2013-02-19 14:00:00,
2013-02-19 07:30:00,28.5,-5.6,30.25,NNE,28,5.0,7.0,22,0.00,,,0.00,Wunderground v.1.15,2013-02-19 14:30:00,
2013-02-19 08:00:00,29.0,-6.1,30.23,NNE,17,7.0,7.0,21,0.00,,,0.00,Wunderground v.1.15,2013-02-19 15:00:00,
2013-02-19 08:30:00,30.1,-5.2,30.23,NNE,21,7.0,7.0,21,0.00,,,0.00,Wunderground v.1.15,2013-02-19 15:30:00,
2013-02-19 09:00:00,33.5,-4.4,30.21,NE,48,2.0,3.0,19,0.00,,,0.00,Wunderground v.1.15,2013-02-19 16:00:00,
2013-02-19 09:30:00,35.5,-9.1,30.19,ENE,76,3.0,11.0,14,0.00,,,0.00,Wunderground v.1.15,2013-02-19 16:30:00,
2013-02-19 10:00:00,37.2,-9.2,30.18,NE,55,3.0,3.0,13,0.00,,,0.00,Wunderground v.1.15,2013-02-19 17:00:00,
2013-02-19 10:30:00,37.0,-5.1,30.10,SSE,152,4.0,4.0,16,0.00,,,0.00,Wunderground v.1.15,2013-02-19 17:30:00,
2013-02-19 11:00:00,38.5,-5.2,30.09,East,80,6.0,6.0,15,0.00,,,0.00,Wunderground v.1.15,2013-02-19 18:00:00,
2013-02-19 11:30:00,39.5,-4.4,30.11,SE,124,3.0,3.0,15,0.00,,,0.00,Wunderground v.1.15,2013-02-19 18:30:00,
2013-02-19 12:00:00,39.6,-3.0,30.07,SSE,157,6.0,6.0,16,0.00,,,0.00,Wunderground v.1.15,2013-02-19 19:00:00,
2013-02-19 12:30:00,42.5,-2.0,30.05,NNE,16,3.0,8.0,15,0.00,,,0.00,Wunderground v.1.15,2013-02-19 19:30:00,
2013-02-19 13:00:00,43.9,0.5,30.00,SE,141,3.0,5.0,16,0.00,,,0.00,Wunderground v.1.15,2013-02-19 20:00:00,
2013-02-19 13:30:00,43.1,2.4,29.92,SSE,155,4.0,6.0,18,0.00,,,0.00,Wunderground v.1.15,2013-02-19 20:30:00,
2013-02-19 14:00:00,43.1,5.7,29.89,East,93,3.0,3.0,21,0.00,,,0.00,Wunderground v.1.15,2013-02-19 21:00:00,
2013-02-19 14:30:00,41.3,3.2,29.93,South,176,4.0,4.0,20,0.00,,,0.00,Wunderground v.1.15,2013-02-19 21:30:00,
2013-02-19 15:00:00,40.5,4.6,29.92,South,171,6.0,7.0,22,0.00,,,0.00,Wunderground v.1.15,2013-02-19 22:00:00,
2013-02-19 15:30:00,41.3,4.2,29.95,ESE,114,4.0,5.0,21,0.00,,,0.00,Wunderground v.1.15,2013-02-19 22:30:00,
2013-02-19 16:00:00,41.6,4.5,29.94,NNE,31,3.0,5.0,21,0.00,,,0.00,Wunderground v.1.15,2013-02-19 23:00:00,
2013-02-19 16:30:00,42.1,8.7,29.86,South,172,4.0,4.0,25,0.00,,,0.00,Wunderground v.1.15,2013-02-19 23:30:00,
2013-02-19 17:00:00,40.3,4.4,29.86,SSE,158,4.0,4.0,22,0.00,,,0.00,Wunderground v.1.15,2013-02-20 00:00:00,
2013-02-19 17:30:00,39.5,6.5,29.85,ENE,58,2.0,2.0,25,0.00,,,0.00,Wunderground v.1.15,2013-02-20 00:30:00,
2013-02-19 18:00:00,38.0,5.2,29.86,NNE,28,3.0,3.0,25,0.00,,,0.00,Wunderground v.1.15,2013-02-20 01:00:00,
2013-02-19 18:30:00,37.2,5.4,29.91,NE,37,3.0,3.0,26,0.00,,,0.00,Wunderground v.1.15,2013-02-20 01:30:00,
2013-02-19 19:00:00,35.0,2.7,29.91,NE,38,2.0,2.0,25,0.00,,,0.00,Wunderground v.1.15,2013-02-20 02:00:00,
2013-02-19 19:30:00,35.6,4.8,29.83,NE,40,2.0,2.0,27,0.00,,,0.00,Wunderground v.1.15,2013-02-20 02:30:00,
2013-02-19 20:00:00,-999.9,-99.9,29.82,North,32767,-999.0,0.0,255,-99.99,,,0.00,Wunderground v.1.15,2013-02-20 03:00:00,
2013-02-19 20:30:00,-999.9,-99.9,29.73,North,32767,-999.0,0.0,255,-99.99,,,0.00,Wunderground v.1.15,2013-02-20 03:30:00,
2013-02-19 21:00:00,-999.9,-99.9,29.72,North,32767,-999.0,0.0,255,-99.99,,,0.00,Wunderground v.1.15,2013-02-20 04:00:00,
2013-02-19 21:30:00,-999.9,-99.9,29.67,North,32767,-999.0,0.0,255,-99.99,,,0.00,Wunderground v.1.15,2013-02-20 04:30:00,
2013-02-19 22:00:00,-999.9,-99.9,29.67,NNE,32,0.0,0.0,255,0.00,,,0.00,Wunderground v.1.15,2013-02-20 05:00:00,
2013-02-19 22:30:00,-999.9,-99.9,29.72,North,32767,-999.0,0.0,255,-99.99,,,0.00,Wunderground v.1.15,2013-02-20 05:30:00,
2013-02-19 23:00:00,30.7,9.2,29.64,SE,137,0.0,0.0,40,0.00,,,0.00,Wunderground v.1.15,2013-02-20 06:00:00,
2013-02-19 23:30:00,32.8,11.1,29.74,NE,56,0.0,1.0,40,0.00,,,0.00,Wunderground v.1.15,2013-02-20 06:30:00,